QPF
0.01 0.01 0.01 0.01 0.01 0.01 0.01 0.02 0.03 0.02 0.02 0.03 0.03 0.03 0.03 0.03 0.03 0.03 0.03 0.03 0.03 0.04 0.05 0.06 0.06 0.05 0.05 0.05 0.04 0.04 0.04 0.04 0.03 0.01 0.02 0.02 0.02 0.02 0.03 0.02 0.02 0.03 0.03 0.02
0.00 0.01 0.01 0.00 0.00 0.00 0.01 0.01 0.02 0.02 0.03 0.03 0.03 0.03 0.02 0.03 0.04 0.03 0.04 0.04 0.03 0.03 0.04 0.04 0.05 0.05 0.04 0.04 0.04 0.04 0.04 0.04 0.04 0.02 0.02 0.02 0.01 0.02 0.02 0.02 0.02 0.03 0.03 0.03
0.01 0.01 0.01 0.01 0.01 0.01 0.01 0.02 0.03 0.04 0.04 0.03 0.02 0.03 0.03 0.04 0.04 0.04 0.04 0.04 0.04 0.03 0.04 0.04 0.04 0.05 0.04 0.04 0.04 0.04 0.04 0.03 0.03 0.02 0.02 0.02 0.01 0.01 0.01 0.01 0.02 0.02 0.02 0.02
0.02 0.01 0.01 0.02 0.01 0.01 0.02 0.03 0.03 0.04 0.03 0.03 0.03 0.03 0.04 0.04 0.04 0.04 0.04 0.04 0.04 0.04 0.03 0.03 0.03 0.04 0.04 0.04 0.04 0.03 0.02 0.02 0.02 0.02 0.02 0.02 0.01 0.01 0.01 0.01 0.01 0.01 0.01 0.02
0.02 0.01 0.01 0.01 0.01 0.01 0.02 0.03 0.03 0.03 0.02 0.01 0.01 0.02 0.02 0.02 0.02 0.03 0.03 0.04 0.04 0.04 0.04 0.03 0.03 0.03 0.04 0.04 0.03 0.02 0.02 0.02 0.02 0.02 0.01 0.01 0.01 0.01 0.01 0.01 0.01 0.01 0.01 0.01
0.02 0.02 0.01 0.01 0.01 0.01 0.01 0.03 0.02 0.02 0.02 0.01 0.02 0.02 0.02 0.02 0.02 0.02 0.02 0.02 0.03 0.03 0.03 0.03 0.03 0.03 0.03 0.03 0.03 0.02 0.02 0.02 0.01 0.01 0.01 0.01 0.01 0.01 0.02 0.02 0.01 0.01 0.01 0.01
0.01 0.01 0.01 0.02 0.01 0.01 0.02 0.03 0.01 0.01 0.02 0.02 0.03 0.04 0.03 0.02 0.02 0.02 0.02 0.02 0.02 0.03 0.02 0.03 0.03 0.03 0.03 0.04 0.04 0.03 0.02 0.02 0.01 0.01 0.01 0.01 0.02 0.02 0.02 0.03 0.03 0.02 0.02 0.02
0.01 0.02 0.02 0.01 0.01 0.02 0.02 0.01 0.01 0.01 0.01 0.02 0.02 0.02 0.02 0.02 0.02 0.02 0.01 0.01 0.02 0.02 0.03 0.02 0.02 0.03 0.04 0.04 0.04 0.03 0.03 0.02 0.02 0.01 0.01 0.01 0.02 0.03 0.03 0.03 0.04 0.04 0.03 0.03
0.02 0.02 0.01 0.01 0.01 0.01 0.01 0.01 0.01 0.01 0.01 0.01 0.02 0.02 0.02 0.03 0.03 0.03 0.02 0.02 0.02 0.03 0.03 0.02 0.02 0.03 0.04 0.04 0.04 0.04 0.03 0.03 0.02 0.01 0.01 0.01 0.02 0.02 0.03 0.03 0.04 0.05 0.05 0.05
0.01 0.00 0.00 0.00 0.00 0.00 0.00 0.01 0.01 0.01 0.01 0.01 0.02 0.02 0.02 0.03 0.03 0.03 0.03 0.02 0.02 0.02 0.03 0.03 0.02 0.02 0.03 0.03 0.03 0.03 0.03 0.03 0.03 0.02 0.02 0.01 0.02 0.02 0.03 0.04 0.04 0.05 0.05 0.05
0.00 0.00 0.00 0.00 0.00 0.00 0.00 0.00 0.00 0.00 0.01 0.01 0.01 0.02 0.02 0.02 0.03 0.03 0.03 0.02 0.02 0.03 0.03 0.03 0.03 0.02 0.02 0.02 0.03 0.03 0.03 0.03 0.03 0.03 0.03 0.02 0.01 0.02 0.03 0.04 0.05 0.06 0.06 0.05
0.00 0.00 0.00 0.00 0.00 0.00 0.00 0.00 0.00 0.00 0.00 0.01 0.01 0.02 0.02 0.02 0.02 0.03 0.03 0.03 0.02 0.02 0.03 0.03 0.03 0.02 0.02 0.03 0.02 0.03 0.03 0.03 0.04 0.03 0.03 0.02 0.01 0.02 0.02 0.02 0.03 0.04 0.05 0.05
0.01 0.00 0.00 0.00 0.00 0.00 0.00 0.00 0.01 0.01 0.01 0.01 0.01 0.02 0.02 0.02 0.02 0.02 0.02 0.02 0.03 0.03 0.03 0.03 0.03 0.02 0.02 0.03 0.03 0.03 0.03 0.03 0.03 0.03 0.03 0.02 0.02 0.02 0.02 0.02 0.02 0.02 0.03 0.04
0.00 0.00 0.00 0.00 0.00 0.01 0.01 0.01 0.01 0.01 0.01 0.01 0.01 0.01 0.02 0.02 0.02 0.02 0.02 0.02 0.03 0.03 0.03 0.03 0.02 0.02 0.03 0.03 0.03 0.03 0.03 0.03 0.03 0.03 0.03 0.03 0.03 0.03 0.03 0.03 0.03 0.03 0.03 0.03
0.00 0.00 0.00 0.00 0.01 0.01 0.01 0.01 0.01 0.01 0.01 0.01 0.01 0.01 0.01 0.02 0.02 0.02 0.02 0.02 0.02 0.02 0.02 0.02 0.02 0.03 0.03 0.03 0.03 0.03 0.03 0.03 0.03 0.03 0.03 0.03 0.04 0.04 0.04 0.04 0.04 0.04 0.04 0.04
0.00 0.00 0.01 0.01 0.01 0.01 0.01 0.01 0.01 0.01 0.01 0.01 0.01 0.01 0.01 0.02 0.02 0.02 0.02 0.02 0.02 0.02 0.02 0.02 0.03 0.03 0.04 0.04 0.03 0.03 0.04 0.04 0.04 0.04 0.04 0.04 0.04 0.04 0.04 0.04 0.04 0.04 0.04 0.04
0.01 0.01 0.01 0.01 0.01 0.01 0.01 0.01 0.02 0.01 0.01 0.01 0.01 0.01 0.01 0.01 0.01 0.01 0.02 0.02 0.02 0.02 0.02 0.02 0.03 0.03 0.03 0.03 0.03 0.04 0.04 0.04 0.04 0.04 0.04 0.05 0.05 0.04 0.04 0.04 0.04 0.04 0.04 0.04
0.01 0.01 0.01 0.01 0.01 0.01 0.01 0.01 0.01 0.01 0.01 0.01 0.01 0.01 0.01 0.01 0.01 0.02 0.02 0.02 0.02 0.01 0.02 0.02 0.02 0.02 0.02 0.03 0.03 0.03 0.03 0.04 0.04 0.04 0.04 0.05 0.05 0.05 0.05 0.05 0.04 0.04 0.03 0.04
0.01 0.01 0.01 0.01 0.01 0.01 0.01 0.01 0.01 0.01 0.02 0.02 0.02 0.02 0.01 0.02 0.02 0.02 0.02 0.02 0.02 0.02 0.02 0.03 0.03 0.03 0.03 0.03 0.03 0.03 0.03 0.04 0.04 0.04 0.04 0.04 0.04 0.04 0.04 0.04 0.04 0.04 0.04 0.03
0.01 0.01 0.01 0.01 0.01 0.01 0.01 0.01 0.02 0.02 0.02 0.02 0.02 0.02 0.01 0.02 0.02 0.02 0.02 0.02 0.03 0.03 0.04 0.03 0.03 0.03 0.03 0.03 0.03 0.03 0.03 0.03 0.04 0.04 0.04 0.04 0.04 0.04 0.04 0.04 0.04 0.03 0.03 0.03
0.01 0.01 0.01 0.01 0.01 0.01 0.01 0.01 0.02 0.02 0.02 0.02 0.02 0.02 0.02 0.02 0.02 0.02 0.02 0.02 0.03 0.03 0.03 0.03 0.03 0.03 0.03 0.03 0.03 0.03 0.03 0.03 0.04 0.04 0.04 0.04 0.03 0.03 0.03 0.03 0.03 0.03 0.03 0.03
0.01 0.01 0.01 0.01 0.01 0.01 0.01 0.01 0.02 0.02 0.02 0.02 0.02 0.02 0.02 0.02 0.02 0.02 0.02 0.03 0.03 0.03 0.02 0.02 0.02 0.03 0.04 0.04 0.03 0.03 0.03 0.04 0.04 0.04 0.04 0.04 0.03 0.03 0.03 0.03 0.03 0.03 0.02 0.02
0.01 0.01 0.01 0.01 0.01 0.01 0.01 0.01 0.01 0.01 0.01 0.01 0.02 0.02 0.02 0.02 0.02 0.02 0.02 0.03 0.03 0.03 0.02 0.03 0.03 0.03 0.04 0.03 0.03 0.03 0.03 0.03 0.03 0.03 0.03 0.03 0.03 0.03 0.03 0.03 0.03 0.03 0.02 0.02
0.01 0.01 0.01 0.01 0.00 0.00 0.00 0.00 0.00 0.01 0.01 0.01 0.01 0.01 0.01 0.01 0.01 0.02 0.03 0.03 0.03 0.02 0.03 0.03 0.03 0.03 0.03 0.03 0.03 0.03 0.03 0.03 0.02 0.02 0.02 0.02 0.02 0.02 0.02 0.02 0.02 0.02 0.02 0.02
0.01 0.00 0.00 0.00 0.00 0.00 0.00 0.00 0.00 0.00 0.00 0.00 0.01 0.01 0.01 0.01 0.02 0.02 0.02 0.02 0.02 0.02 0.02 0.03 0.03 0.02 0.02 0.02 0.02 0.02 0.02 0.02 0.02 0.02 0.02 0.02 0.02 0.02 0.01 0.01 0.01 0.02 0.02 0.02
0.00 0.00 0.00 0.00 0.00 0.00 0.00 0.00 0.00 0.00 0.00 0.00 0.00 0.01 0.01 0.01 0.01 0.01 0.02 0.02 0.01 0.01 0.02 0.02 0.02 0.02 0.02 0.02 0.02 0.02 0.02 0.02 0.02 0.02 0.02 0.02 0.02 0.02 0.02 0.02 0.01 0.01 0.01 0.01
0.00 0.00 0.00 0.00 0.00 0.00 0.00 0.00 0.00 0.00 0.00 0.01 0.01 0.01 0.01 0.01 0.01 0.01 0.01 0.01 0.01 0.01 0.01 0.01 0.01 0.01 0.01 0.01 0.02 0.02 0.02 0.02 0.02 0.02 0.02 0.02 0.02 0.02 0.02 0.02 0.02 0.02 0.02 0.02
MSLP
1030.02 1030.03 1030.04 1030.06 1030.14 1030.29 1030.53 1030.88 1031.34 1031.89 1032.50 1033.13 1033.74 1034.28 1034.71 1034.99 1035.10 1035.05 1034.84 1034.49 1034.03 1033.48 1032.89 1032.27 1031.63 1030.98 1030.32 1029.64 1028.93 1028.19 1027.42 1026.59 1025.73 1024.83 1023.89 1022.94 1021.97 1021.02 1020.08 1019.19 1018.36 1017.62 1016.98 1016.45
1030.67 1030.73 1030.81 1030.92 1031.06 1031.25 1031.51 1031.82 1032.20 1032.63 1033.09 1033.56 1034.01 1034.42 1034.74 1034.96 1035.07 1035.05 1034.91 1034.65 1034.28 1033.82 1033.28 1032.67 1032.02 1031.32 1030.59 1029.83 1029.05 1028.24 1027.41 1026.56 1025.68 1024.79 1023.87 1022.93 1021.97 1021.01 1020.06 1019.13 1018.26 1017.45 1016.74 1016.15
1031.13 1031.25 1031.39 1031.55 1031.76 1032.00 1032.27 1032.59 1032.92 1033.28 1033.64 1033.99 1034.32 1034.61 1034.84 1035.01 1035.10 1035.09 1034.99 1034.79 1034.49 1034.09 1033.59 1033.01 1032.35 1031.63 1030.85 1030.04 1029.19 1028.33 1027.46 1026.58 1025.69 1024.79 1023.88 1022.95 1021.99 1021.03 1020.06 1019.10 1018.17 1017.31 1016.53 1015.87
1031.39 1031.53 1031.71 1031.94 1032.20 1032.50 1032.82 1033.15 1033.49 1033.82 1034.13 1034.42 1034.67 1034.88 1035.04 1035.15 1035.20 1035.19 1035.10 1034.92 1034.65 1034.28 1033.82 1033.26 1032.60 1031.87 1031.08 1030.23 1029.35 1028.46 1027.56 1026.66 1025.76 1024.85 1023.94 1023.01 1022.05 1021.08 1020.09 1019.10 1018.13 1017.22 1016.38 1015.65
1031.43 1031.59 1031.81 1032.07 1032.39 1032.75 1033.13 1033.52 1033.90 1034.25 1034.56 1034.83 1035.04 1035.20 1035.31 1035.36 1035.37 1035.32 1035.21 1035.02 1034.76 1034.40 1033.95 1033.41 1032.77 1032.04 1031.25 1030.40 1029.51 1028.60 1027.69 1026.78 1025.87 1024.96 1024.04 1023.11 1022.15 1021.17 1020.16 1019.15 1018.15 1017.19 1016.30 1015.50
1031.32 1031.49 1031.73 1032.03 1032.40 1032.82 1033.27 1033.73 1034.17 1034.57 1034.91 1035.19 1035.40 1035.53 1035.60 1035.61 1035.57 1035.47 1035.32 1035.11 1034.82 1034.46 1034.02 1033.48 1032.86 1032.15 1031.38 1030.54 1029.66 1028.76 1027.85 1026.93 1026.02 1025.10 1024.18 1023.24 1022.28 1021.30 1020.29 1019.27 1018.25 1017.25 1016.30 1015.44
1031.15 1031.33 1031.58 1031.92 1032.32 1032.80 1033.31 1033.83 1034.33 1034.79 1035.18 1035.49 1035.71 1035.84 1035.88 1035.86 1035.76 1035.62 1035.41 1035.16 1034.85 1034.47 1034.03 1033.51 1032.91 1032.23 1031.48 1030.67 1029.82 1028.93 1028.02 1027.11 1026.19 1025.27 1024.34 1023.40 1022.44 1021.47 1020.46 1019.44 1018.41 1017.39 1016.41 1015.48
1031.05 1031.23 1031.50 1031.85 1032.28 1032.79 1033.34 1033.90 1034.45 1034.95 1035.38 1035.72 1035.95 1036.08 1036.11 1036.05 1035.92 1035.73 1035.48 1035.19 1034.84 1034.45 1034.01 1033.50 1032.93 1032.28 1031.57 1030.80 1029.97 1029.11 1028.21 1027.30 1026.38 1025.45 1024.52 1023.58 1022.63 1021.67 1020.68 1019.67 1018.65 1017.63 1016.61 1015.63
1031.11 1031.32 1031.59 1031.95 1032.39 1032.90 1033.45 1034.02 1034.58 1035.10 1035.54 1035.89 1036.12 1036.25 1036.27 1036.18 1036.02 1035.79 1035.51 1035.19 1034.82 1034.43 1033.98 1033.50 1032.95 1032.34 1031.67 1030.93 1030.14 1029.29 1028.41 1027.50 1026.57 1025.64 1024.71 1023.77 1022.83 1021.89 1020.93 1019.95 1018.95 1017.94 1016.91 1015.89
1031.41 1031.64 1031.92 1032.28 1032.70 1033.18 1033.71 1034.25 1034.78 1035.27 1035.69 1036.02 1036.24 1036.35 1036.34 1036.24 1036.06 1035.80 1035.50 1035.16 1034.78 1034.39 1033.96 1033.49 1032.98 1032.40 1031.77 1031.07 1030.30 1029.47 1028.60 1027.69 1026.77 1025.83 1024.90 1023.97 1023.05 1022.14 1021.21 1020.27 1019.31 1018.31 1017.29 1016.25
1031.91 1032.17 1032.47 1032.81 1033.21 1033.64 1034.11 1034.59 1035.05 1035.47 1035.84 1036.12 1036.30 1036.38 1036.35 1036.23 1036.02 1035.75 1035.44 1035.09 1034.72 1034.33 1033.91 1033.47 1032.99 1032.45 1031.85 1031.18 1030.44 1029.63 1028.78 1027.88 1026.95 1026.02 1025.09 1024.18 1023.28 1022.39 1021.51 1020.61 1019.69 1018.73 1017.73 1016.69
1032.53 1032.82 1033.14 1033.47 1033.83 1034.20 1034.59 1034.98 1035.35 1035.69 1035.97 1036.18 1036.31 1036.34 1036.28 1036.14 1035.92 1035.65 1035.33 1034.98 1034.61 1034.23 1033.83 1033.40 1032.94 1032.44 1031.87 1031.23 1030.52 1029.75 1028.91 1028.03 1027.11 1026.19 1025.28 1024.38 1023.51 1022.66 1021.81 1020.96 1020.09 1019.18 1018.21 1017.19
1033.10 1033.43 1033.76 1034.09 1034.41 1034.73 1035.04 1035.33 1035.61 1035.85 1036.05 1036.18 1036.25 1036.24 1036.15 1035.98 1035.75 1035.47 1035.15 1034.80 1034.43 1034.06 1033.66 1033.25 1032.81 1032.33 1031.80 1031.19 1030.52 1029.78 1028.97 1028.12 1027.24 1026.34 1025.46 1024.59 1023.74 1022.93 1022.12 1021.32 1020.50 1019.64 1018.73 1017.75
1033.48 1033.85 1034.20 1034.52 1034.82 1035.09 1035.34 1035.55 1035.74 1035.90 1036.02 1036.09 1036.10 1036.05 1035.94 1035.75 1035.52 1035.23 1034.90 1034.55 1034.18 1033.79 1033.40 1033.00 1032.57 1032.11 1031.61 1031.04 1030.41 1029.71 1028.96 1028.16 1027.32 1026.47 1025.62 1024.79 1023.98 1023.20 1022.44 1021.68 1020.91 1020.11 1019.26 1018.35
1033.57 1033.97 1034.34 1034.67 1034.95 1035.20 1035.40 1035.57 1035.70 1035.80 1035.87 1035.89 1035.87 1035.79 1035.66 1035.47 1035.22 1034.92 1034.59 1034.22 1033.84 1033.45 1033.05 1032.64 1032.22 1031.77 1031.30 1030.77 1030.19 1029.56 1028.87 1028.13 1027.35 1026.56 1025.76 1024.98 1024.22 1023.47 1022.76 1022.05 1021.33 1020.60 1019.82 1018.99
1033.35 1033.76 1034.15 1034.49 1034.78 1035.02 1035.21 1035.36 1035.47 1035.54 1035.58 1035.59 1035.55 1035.47 1035.33 1035.13 1034.88 1034.57 1034.23 1033.84 1033.44 1033.03 1032.61 1032.19 1031.77 1031.34 1030.89 1030.41 1029.89 1029.33 1028.71 1028.05 1027.35 1026.63 1025.90 1025.17 1024.45 1023.75 1023.08 1022.42 1021.76 1021.09 1020.39 1019.66
1032.87 1033.29 1033.70 1034.06 1034.37 1034.62 1034.82 1034.98 1035.09 1035.17 1035.21 1035.22 1035.19 1035.11 1034.97 1034.78 1034.52 1034.21 1033.85 1033.45 1033.02 1032.58 1032.14 1031.71 1031.28 1030.87 1030.44 1030.01 1029.55 1029.05 1028.51 1027.94 1027.32 1026.68 1026.02 1025.35 1024.68 1024.03 1023.40 1022.79 1022.18 1021.58 1020.97 1020.35
1032.26 1032.69 1033.11 1033.50 1033.83 1034.11 1034.34 1034.52 1034.65 1034.75 1034.82 1034.84 1034.83 1034.76 1034.64 1034.45 1034.19 1033.87 1033.49 1033.07 1032.62 1032.15 1031.69 1031.24 1030.81 1030.40 1030.00 1029.60 1029.20 1028.77 1028.31 1027.81 1027.28 1026.71 1026.11 1025.51 1024.89 1024.29 1023.71 1023.14 1022.59 1022.06 1021.54 1021.02
1031.69 1032.13 1032.56 1032.97 1033.33 1033.63 1033.89 1034.09 1034.25 1034.38 1034.47 1034.51 1034.52 1034.47 1034.35 1034.17 1033.91 1033.58 1033.19 1032.75 1032.27 1031.78 1031.30 1030.83 1030.40 1029.99 1029.61 1029.24 1028.88 1028.51 1028.11 1027.68 1027.22 1026.71 1026.18 1025.62 1025.06 1024.50 1023.96 1023.45 1022.96 1022.49 1022.06 1021.63
1031.28 1031.73 1032.17 1032.59 1032.97 1033.29 1033.56 1033.79 1033.96 1034.11 1034.21 1034.27 1034.28 1034.23 1034.12 1033.93 1033.67 1033.33 1032.93 1032.47 1031.98 1031.48 1030.98 1030.51 1030.06 1029.66 1029.28 1028.94 1028.61 1028.27 1027.92 1027.54 1027.12 1026.67 1026.19 1025.68 1025.16 1024.64 1024.15 1023.67 1023.24 1022.84 1022.48 1022.15
1031.08 1031.54 1032.00 1032.42 1032.80 1033.13 1033.40 1033.63 1033.80 1033.94 1034.04 1034.09 1034.10 1034.04 1033.92 1033.73 1033.46 1033.12 1032.71 1032.24 1031.74 1031.23 1030.72 1030.24 1029.79 1029.39 1029.02 1028.68 1028.36 1028.05 1027.72 1027.37 1026.98 1026.56 1026.11 1025.64 1025.16 1024.68 1024.22 1023.80 1023.41 1023.07 1022.78 1022.52
1031.08 1031.55 1032.01 1032.43 1032.80 1033.12 1033.37 1033.58 1033.73 1033.84 1033.92 1033.95 1033.93 1033.86 1033.72 1033.51 1033.24 1032.88 1032.47 1032.00 1031.50 1030.99 1030.48 1030.00 1029.55 1029.14 1028.76 1028.43 1028.11 1027.80 1027.48 1027.14 1026.77 1026.37 1025.94 1025.50 1025.04 1024.60 1024.18 1023.80 1023.47 1023.18 1022.94 1022.74
1031.18 1031.67 1032.12 1032.53 1032.88 1033.17 1033.39 1033.55 1033.67 1033.75 1033.78 1033.78 1033.72 1033.62 1033.46 1033.24 1032.95 1032.59 1032.18 1031.71 1031.22 1030.71 1030.21 1029.73 1029.27 1028.86 1028.49 1028.14 1027.82 1027.50 1027.17 1026.83 1026.47 1026.08 1025.67 1025.25 1024.82 1024.41 1024.03 1023.69 1023.39 1023.15 1022.95 1022.80
1031.29 1031.78 1032.23 1032.61 1032.93 1033.18 1033.35 1033.47 1033.55 1033.57 1033.57 1033.52 1033.43 1033.30 1033.11 1032.87 1032.57 1032.21 1031.79 1031.34 1030.85 1030.35 1029.86 1029.39 1028.94 1028.52 1028.14 1027.79 1027.45 1027.12 1026.79 1026.45 1026.09 1025.71 1025.31 1024.91 1024.51 1024.13 1023.78 1023.47 1023.21 1023.00 1022.83 1022.71
1031.33 1031.81 1032.23 1032.59 1032.87 1033.07 1033.20 1033.28 1033.30 1033.29 1033.24 1033.15 1033.03 1032.87 1032.66 1032.41 1032.10 1031.73 1031.32 1030.87 1030.39 1029.91 1029.43 1028.96 1028.51 1028.10 1027.71 1027.35 1027.01 1026.67 1026.34 1025.99 1025.63 1025.26 1024.88 1024.50 1024.13 1023.78 1023.46 1023.18 1022.95 1022.76 1022.62 1022.50
1031.28 1031.73 1032.11 1032.43 1032.66 1032.82 1032.91 1032.95 1032.93 1032.89 1032.80 1032.69 1032.55 1032.37 1032.14 1031.87 1031.55 1031.19 1030.78 1030.33 1029.87 1029.39 1028.91 1028.45 1028.01 1027.59 1027.20 1026.84 1026.49 1026.16 1025.82 1025.48 1025.13 1024.78 1024.42 1024.06 1023.71 1023.39 1023.10 1022.84 1022.63 1022.45 1022.31 1022.20
1031.16 1031.56 1031.90 1032.16 1032.35 1032.47 1032.53 1032.53 1032.50 1032.43 1032.32 1032.19 1032.04 1031.84 1031.60 1031.33 1031.00 1030.63 1030.22 1029.77 1029.31 1028.83 1028.35 1027.89 1027.45 1027.03 1026.64 1026.28 1025.93 1025.60 1025.27 1024.94 1024.61 1024.27 1023.93 1023.60 1023.27 1022.97 1022.70 1022.46 1022.25 1022.08 1021.94 1021.82
Thickness
5381 5379 5375 5371 5369 5367 5363 5366 5366 5372 5366 5361 5358 5357 5361 5364 5368 5372 5376 5379 5383 5388 5394 5399 5405 5411 5416 5421 5425 5430 5435 5440 5444 5447 5451 5454 5457 5460 5463 5466 5469 5471 5474 5476
5366 5369 5365 5359 5357 5355 5353 5351 5351 5352 5348 5343 5342 5343 5346 5349 5352 5356 5360 5364 5369 5374 5379 5385 5391 5397 5403 5408 5412 5417 5422 5427 5431 5435 5438 5442 5445 5448 5451 5454 5456 5459 5462 5464
5362 5357 5353 5353 5343 5338 5336 5332 5332 5332 5327 5325 5327 5328 5330 5332 5336 5339 5344 5349 5355 5361 5366 5372 5378 5384 5390 5396 5400 5405 5410 5414 5418 5423 5426 5429 5432 5435 5439 5442 5444 5447 5450 5453
5345 5342 5336 5337 5325 5323 5318 5313 5310 5308 5308 5309 5310 5314 5318 5319 5321 5324 5329 5335 5342 5348 5354 5360 5366 5372 5378 5385 5390 5394 5399 5403 5406 5411 5415 5418 5420 5424 5427 5430 5433 5436 5438 5440
5332 5332 5336 5321 5314 5307 5305 5304 5297 5295 5296 5298 5299 5308 5316 5311 5308 5309 5314 5321 5328 5335 5342 5349 5355 5360 5367 5373 5378 5383 5388 5392 5396 5399 5403 5407 5410 5413 5416 5419 5421 5424 5426 5428
5317 5316 5319 5312 5302 5298 5296 5299 5289 5283 5283 5284 5286 5297 5304 5298 5296 5299 5304 5310 5317 5324 5331 5338 5343 5349 5355 5362 5367 5372 5377 5381 5385 5388 5392 5396 5399 5401 5404 5407 5410 5412 5414 5416
5306 5306 5310 5293 5288 5290 5291 5286 5276 5273 5272 5271 5272 5275 5279 5282 5286 5289 5295 5300 5306 5313 5320 5325 5331 5337 5344 5351 5355 5360 5364 5369 5374 5378 5381 5385 5388 5391 5393 5396 5398 5401 5403 5405
5296 5295 5294 5280 5278 5275 5270 5266 5263 5262 5261 5260 5262 5265 5268 5272 5276 5281 5287 5292 5296 5302 5308 5314 5318 5324 5331 5338 5343 5348 5353 5359 5363 5367 5371 5374 5377 5380 5382 5385 5388 5390 5392 5394
5283 5283 5275 5267 5263 5260 5256 5254 5254 5252 5251 5251 5252 5256 5259 5263 5267 5272 5277 5282 5286 5291 5297 5302 5307 5312 5319 5324 5330 5336 5342 5347 5352 5356 5359 5363 5366 5369 5372 5375 5378 5380 5382 5384
5269 5271 5264 5259 5255 5251 5248 5245 5244 5242 5242 5243 5243 5247 5250 5254 5258 5262 5267 5271 5276 5281 5286 5291 5295 5300 5306 5312 5318 5324 5330 5335 5340 5345 5349 5352 5355 5358 5361 5364 5367 5369 5372 5374
5260 5259 5255 5254 5249 5244 5240 5238 5236 5235 5234 5235 5236 5239 5241 5244 5248 5251 5256 5260 5265 5270 5275 5280 5285 5290 5295 5300 5306 5312 5318 5323 5328 5333 5337 5341 5344 5346 5349 5353 5356 5359 5362 5364
5259 5251 5245 5245 5240 5235 5232 5230 5228 5227 5228 5228 5228 5230 5233 5236 5239 5242 5246 5251 5255 5260 5265 5270 5274 5279 5284 5289 5295 5301 5307 5312 5317 5321 5325 5329 5333 5336 5338 5341 5345 5348 5351 5354
5241 5238 5234 5233 5230 5226 5223 5221 5220 5220 5219 5220 5221 5222 5225 5228 5231 5234 5238 5242 5246 5250 5255 5260 5265 5270 5275 5279 5285 5291 5297 5302 5306 5310 5314 5318 5322 5325 5328 5332 5335 5338 5342 5344
5231 5227 5226 5225 5222 5218 5215 5214 5213 5212 5212 5213 5214 5215 5217 5220 5224 5227 5230 5234 5238 5242 5247 5251 5256 5261 5266 5271 5276 5282 5287 5291 5295 5300 5303 5307 5311 5314 5317 5320 5324 5328 5331 5334
5224 5220 5218 5215 5212 5210 5207 5206 5205 5206 5206 5206 5207 5208 5210 5212 5216 5219 5222 5226 5230 5235 5239 5243 5248 5253 5257 5262 5267 5273 5278 5282 5286 5290 5293 5297 5300 5303 5305 5308 5311 5315 5319 5322
5217 5213 5210 5207 5205 5202 5200 5198 5198 5198 5198 5199 5200 5201 5202 5204 5208 5211 5215 5218 5222 5227 5231 5235 5240 5245 5249 5254 5258 5263 5268 5272 5276 5280 5283 5286 5289 5292 5295 5298 5300 5303 5306 5309
5208 5207 5204 5201 5198 5195 5193 5191 5190 5190 5190 5191 5192 5194 5196 5198 5202 5206 5208 5211 5214 5218 5223 5227 5232 5236 5241 5245 5249 5254 5259 5263 5266 5270 5273 5276 5279 5282 5284 5287 5289 5292 5295 5297
5201 5198 5195 5192 5190 5188 5187 5185 5184 5183 5183 5184 5185 5187 5190 5192 5195 5198 5201 5204 5208 5213 5217 5220 5224 5229 5233 5237 5241 5245 5249 5253 5256 5260 5263 5266 5268 5271 5273 5275 5278 5280 5283 5285
5193 5191 5188 5186 5183 5181 5180 5179 5178 5178 5177 5178 5179 5181 5183 5185 5187 5191 5194 5197 5202 5208 5211 5214 5218 5222 5227 5230 5233 5237 5241 5244 5247 5250 5252 5255 5257 5259 5262 5264 5266 5269 5272 5274
5188 5185 5183 5180 5178 5176 5175 5174 5173 5173 5172 5172 5173 5175 5177 5179 5181 5183 5187 5191 5195 5198 5202 5206 5211 5215 5218 5222 5225 5229 5232 5235 5238 5240 5242 5244 5247 5249 5252 5254 5256 5258 5261 5263
5183 5180 5177 5175 5173 5171 5170 5168 5167 5167 5167 5166 5167 5168 5170 5172 5174 5177 5180 5185 5188 5190 5195 5199 5203 5206 5210 5213 5217 5220 5223 5226 5229 5231 5232 5235 5237 5239 5242 5244 5246 5248 5250 5252
5177 5174 5171 5169 5167 5166 5165 5163 5162 5161 5161 5161 5161 5162 5164 5166 5169 5171 5173 5176 5179 5183 5188 5192 5195 5198 5202 5205 5208 5211 5214 5217 5219 5221 5223 5226 5228 5230 5232 5234 5236 5238 5240 5242
5171 5168 5166 5163 5161 5160 5158 5158 5157 5156 5155 5155 5156 5156 5158 5159 5161 5164 5167 5169 5171 5175 5180 5183 5187 5191 5194 5197 5199 5202 5205 5208 5210 5212 5214 5216 5218 5220 5222 5224 5226 5228 5230 5232
5166 5163 5160 5157 5155 5154 5153 5153 5152 5151 5150 5150 5150 5150 5151 5153 5156 5157 5159 5161 5164 5168 5171 5175 5178 5182 5185 5188 5190 5193 5196 5198 5200 5202 5205 5206 5208 5210 5212 5214 5216 5219 5221 5223
5160 5156 5153 5151 5150 5149 5149 5147 5146 5146 5146 5146 5146 5146 5146 5146 5148 5150 5152 5154 5157 5160 5163 5166 5170 5173 5175 5178 5180 5183 5185 5188 5191 5193 5195 5196 5198 5200 5203 5205 5207 5209 5212 5214
5154 5151 5149 5146 5144 5143 5142 5142 5141 5141 5141 5142 5142 5141 5141 5141 5142 5144 5145 5147 5149 5152 5155 5158 5160 5163 5166 5168 5170 5173 5175 5178 5180 5182 5185 5187 5189 5191 5194 5196 5198 5200 5203 5205
5148 5145 5143 5141 5140 5138 5137 5136 5135 5135 5135 5135 5136 5136 5136 5136 5136 5137 5138 5140 5142 5144 5147 5149 5152 5154 5157 5159 5161 5164 5166 5168 5171 5173 5176 5178 5181 5183 5185 5187 5190 5192 5194 5197